sat.trackr.live / text

‹ back to catalog

ICEYE-X21

NORAD 55049 · 2023-001AS

PAYLOAD ACTIVE UNKNOWN

§ Identity

Operator
Country
FIN
Launch date
2023-01-03
Launch site
AFETR
Launch vehicle
Mass (kg)
RCS (m²)

External: N2YO · Heavens-Above · Gunter

§ Orbital elements

Epoch: 2026-06-24T05:11:18.420288Z

Period
88.67 min
Inclination
97.3001°
Eccentricity
0.0012377
Mean motion
16.24069885 rev/d
Perigee alt
200.4 km
Apogee alt
216.7 km
Semi-major
6,586.7 km
B*
6.0214e-4
RAAN
262.6152°
Arg perigee
285.9702°
Mean anomaly
74.0225°
Rev number
19,475

§ Raw data

ICEYE-X211 55049U 23001AS  26175.21618542  .01585954  23968-5  60214-3 0  99952 55049  97.3001 262.6152 0012377 285.9702  74.0225 16.24069885194757

JSON: /api/v1/satellites/55049 · /tle

For live sub-satellite position, see the globe view (requires WebGL).

§ Visibility from observer

Set your observer location to see the next 7 days of passes ≥ 10°. The values pass through the URL so the page stays shareable.

No JS? Fill the form by hand. The geolocation button needs JavaScript.

§ Radio — SatNOGS DB

ModeDescriptionDownlinkUplink
BPSK S-band telemetry 2.264 GHz

1 transmitter · refreshed weekly from db.satnogs.org